LEMUR-2-ROMACOSTE (43048 NORAD) Tracking and Keplerian Element Data

This shows tracking and keplerian element data for the satellite.

Feedback or suggestion? Click here.




ElementValue
Catalog43048
NameLEMUR-2-ROMACOSTE
Epoch Orbit21483
Epoch Day268.25230593
Epoch Year2021
RAAN257.3095
Inclination51.6314
Eccentricity0.0003612
Argument of Perigee51.8221
Mean Anonmoly308.3098
Mean Motion15.62506953
Decay Rate0.00042599
L11 43048U 17071M 21268.25230593 .00042599 00000-0 47241-3 0 9993
L22 43048 51.6314 257.3095 0003612 51.8221 308.3098 15.62506953214834

Live tracking and technical data element details for LEMUR-2-ROMACOSTE (NORAD 43048). LEMUR-2-ROMACOSTE can be tracked NOW for your location showing map with azimuth and elevation plus other details from your city location.

Track the satellite on the map from your city or location and see movement details for azimuth, elevation, latitude, longitude, range, height, and movement on the map or in text.







IsCatalogInMostPopularTable: catalog: 43048, numindb: 519
Update: records affected: 1



GetName: 43048 LEMUR-2-ROMACOSTE

Hit Count: updated at: Mon, 27 Sep 2021 00:48:21 GMT